#timestamp,LO_Frequency,Hit,StdDev 
1571904015.8,286047000.2,N
1571904035.7,286047002.3,N
1571904055.5,286047002.4,N
1571904075.3,286047001.6,N
1571904095.2,286047000.1,N
1571904115.0,286047000.0,N
1571904115.9,286047000.0,N
1571904135.8,286046999.7,N
1571904155.6,286047000.3,N
1571904175.4,286047000.6,N
1571904195.3,286047000.0,N
1571904215.1,286047000.9,N
1571904235.9,286047000.6,N
1571904255.7,286047000.3,N
1571904275.5,286047000.6,N
1571904295.4,286047002.6,N
1571904315.2,286046999.7,N
1571904335.0,286046998.2,N
1571904335.9,286046998.2,N
1571904355.8,286046999.9,N
1571904375.6,286047000.1,N
1571904395.4,286047000.7,N
1571904415.3,286046998.1,N
1571904435.1,286046998.5,N
1571904455.9,286046998.7,N
1571904475.7,286046998.8,N
1571904495.5,286047000.4,N
1571904515.4,286047000.1,N
1571904535.2,286047000.6,N
1571904555.0,286046998.4,N
1571904556.0,286046998.4,N
1571904575.8,286047000.4,N
1571904595.6,286047000.0,N
1571904615.5,286047002.8,N
1571904635.3,286047002.0,N
1571904655.1,286047000.1,N
1571904675.9,286047002.2,N
1571904695.7,286047002.2,N
1571904715.5,286047002.5,N
1571904735.4,286047002.0,N
1571904755.2,286047001.4,N
1571904775.1,286047003.1,N
1571904776.0,286047003.1,N
1571904795.8,286047004.1,N
1571904815.6,286047002.0,N
1571904835.5,286047001.4,N
1571904855.3,286047001.3,N
1571904875.1,286047000.3,N
1571904895.9,286047000.5,N
1571904915.7,286046998.7,N
1571904935.6,286046998.6,N
1571904955.4,286047000.7,N
1571904975.2,286047001.1,N
1571904995.1,286047000.3,N
1571904996.0,286047000.3,N
1571905015.8,286046998.5,N
1571905035.7,286047000.3,N
1571905055.5,286047002.4,N
1571905075.3,286047002.5,N
1571905095.2,286047002.0,N
1571905115.9,286047002.7,N
1571905135.7,286046999.8,N
1571905155.6,286047002.1,N
1571905175.4,286047001.7,N
1571905195.3,286047002.5,N
1571905215.1,286047002.0,N
1571905216.0,286047002.0,N
1571905235.8,286047001.9,N
1571905255.7,286047002.1,N
1571905275.5,286047002.8,N
1571905295.4,286047002.6,N
1571905315.2,286047002.0,N
1571905335.0,286047000.0,N
1571905335.9,286047000.0,N
1571905355.8,286047000.6,N
1571905375.6,286046999.4,N
1571905395.4,286046998.5,N
1571905415.3,286046999.2,N
1571905435.1,286046999.8,N
1571905455.9,286047001.9,N
1571905475.7,286047002.2,N
1571905495.5,286047000.5,N
1571905515.4,286047001.2,N
1571905535.2,286046999.9,N
1571905555.0,286047002.8,N
1571905555.9,286047002.8,N
1571905575.8,286046998.5,N
1571905595.6,286047000.6,N
1571905615.5,286047000.9,N
1571905635.3,286047000.9,N
1571905655.1,286047000.5,N
1571905675.9,286047000.3,N
1571905695.7,286047000.5,N
1571905715.5,286047000.0,N
1571905735.4,286047000.0,N
1571905755.2,286047000.3,N
1571905775.1,286047000.9,N
1571905776.0,286047000.9,N
1571905795.8,286047002.5,N
1571905815.6,286047000.4,N
1571905835.5,286047002.4,N
1571905855.3,286047002.1,N
1571905875.1,286047002.6,N
1571905895.9,286047001.1,N
1571905915.7,286047001.0,N
1571905935.6,286047000.7,N
1571905955.4,286046998.6,N
1571905975.2,286047002.8,N
1571905995.1,286047002.3,N
1571905996.0,286047002.3,N
1571906015.8,286047002.4,N
1571906035.6,286047001.0,N
1571906055.5,286047000.1,N
1571906075.3,286047002.8,N
1571906095.2,286047004.0,Y
1571906115.9,286047001.5,P
1571906135.7,286047001.5,P
1571906155.6,286047002.0,P
1571906175.4,286047002.8,Y
1571906195.3,286047000.8,P
1571906215.1,286046998.3,P
1571906216.0,286046998.3,N
1571906235.8,286046998.4,N
1571906255.7,286046998.6,N
1571906275.5,286046999.4,N
1571906295.3,286046998.9,N
1571906315.2,286046999.4,N
1571906335.0,286047000.4,N
1571906335.9,286047000.4,N
1571906355.8,286046998.7,N
1571906375.6,286046999.1,N
1571906395.4,286046999.6,N
1571906415.3,286046996.9,Y
1571906435.1,286046996.9,P
1571906455.8,286046997.0,N
1571906475.7,286046997.9,N
1571906495.5,286046997.4,N
1571906515.4,286046997.4,N
1571906535.2,286046996.5,Y
1571906555.0,286047000.0,P
1571906555.9,286047000.0,N
1571906575.8,286047000.3,N
1571906595.6,286047002.4,N
1571906615.4,286047002.7,N
1571906635.3,286047000.9,N
1571906655.1,286046998.6,N
1571906675.9,286046999.0,N
1571906695.7,286046996.9,N
1571906715.5,286046998.3,N
1571906735.4,286046998.9,N
1571906755.2,286046999.5,N
1571906775.0,286047001.2,N
1571906775.9,286047001.2,N
1571906795.8,286047001.0,N
1571906815.6,286047000.1,N
1571906835.5,286047000.1,N
1571906855.3,286047004.4,N
1571906875.1,286047004.2,N
1571906895.9,286047003.4,N
1571906915.7,286047001.5,N
1571906935.5,286047002.6,N
1571906955.4,286047002.1,N
1571906975.2,286047002.0,N
1571906995.0,286047001.3,N
1571906996.0,286047001.3,N
1571907015.8,286047003.3,N
1571907035.6,286047003.8,N
1571907055.5,286047001.7,N
1571907075.3,286047000.3,N
1571907095.1,286046999.9,N
1571907115.9,286047000.6,N
1571907135.7,286047001.0,N
1571907155.5,286046998.5,N
1571907175.4,286046998.3,N
1571907195.2,286046998.2,N
1571907215.1,286047001.1,N
1571907216.0,286047001.1,N
1571907235.8,286047001.0,N
1571907285.7,286046998.7,E
1571907295.6,286046998.4,N
1571907315.4,286047001.1,P
1571907335.3,286047000.5,N
1571907355.1,286046999.9,N
1571907386.0,286046999.7,E
1571907395.0,286047000.9,N
1571907395.9,286047000.9,P
1571907415.8,286047000.0,P
1571907435.6,286047001.1,N
1571907455.5,286047001.1,N
1571907475.3,286047000.3,N
1571907495.1,286046998.1,Y
1571907515.9,286046999.0,P
1571907535.7,286046999.6,N
1571907555.5,286046999.4,N
1571907575.4,286047001.2,N
1571907595.2,286046998.3,N
